Weather History for Cape Cod CGAS, MA

Change the Weather History Date:

Friday, April 5, 2013

  Actual Average Record
Temperature  
Mean Temperature 45 °F -  
Max Temperature 53 °F 47 °F 64 °F (2005)
Min Temperature 37 °F 32 °F 30 °F (2002)
Degree Days  
Heating Degree Days 20    
Moisture  
Dew Point 36 °F    
Average Humidity 77    
Maximum Humidity 93    
Minimum Humidity 52    
Precipitation  
Precipitation 0.12 in - - ()
Sea Level Pressure  
Sea Level Pressure 29.86 in    
Wind  
Wind Speed 11 mph (SW)    
Max Wind Speed 18 mph    
Max Gust Speed 23 mph    
Visibility 10 miles    
Events Rain    
Averages and records for this station are not official NWS values.
T = Trace of Precipitation, MM = Missing Value Source: NWS Daily Summary

Daily Weather History Graph

Daily Weather History Graph

Search for Another Location

Airport:

Trip Planner

Search our weather history database for the weather conditions in past years. The results will help you decide how hot, cold, wet, or windy it might be!

Date:

Astronomy

Apr. 05, 2013 Rise Set
Actual Time 6:17 AM EDT 7:12 PM EDT
Civil Twilight 5:49 AM EDT 7:40 PM EDT
Nautical Twilight 5:16 AM EDT 8:14 PM EDT
Astronomical Twilight 4:41 AM EDT 8:49 PM EDT
Moon 3:27 AM EDT (4/5) 2:29 PM EDT (4/5)
Length of Visible Light 13h 50m
Length of Day
12h 54m
Waning Crescent, 24% of the Moon is Illuminated
Apr 5
Waning Crescent
Apr 10
New
Apr 18
First Quarter
Apr 25
Full
May 2
Last Quarter

Hourly Weather History & Observations

Time (EDT) Temp. Windchill Dew Point Humidity Pressure Visibility Wind Dir Wind Speed Gust Speed Precip Events Conditions
12:15 AM 37.4 °F 28.5 °F 32.0 °F 81% 30.10 in 10.0 mi SW 15.0 mph - N/A   Overcast
12:35 AM 39.2 °F 30.8 °F 32.0 °F 75% 30.10 in 10.0 mi SW 15.0 mph 23.0 mph N/A   Overcast
12:55 AM 39.2 °F 30.8 °F 32.0 °F 75% 30.10 in 10.0 mi SW 15.0 mph 23.0 mph N/A   Overcast
1:15 AM 39.2 °F 31.2 °F 32.0 °F 75% 30.09 in 10.0 mi SW 13.8 mph - N/A   Overcast
1:35 AM 39.2 °F 31.2 °F 32.0 °F 75% 30.08 in 10.0 mi SW 13.8 mph 20.7 mph N/A   Overcast
1:55 AM 39.2 °F 30.2 °F 32.0 °F 75% 30.07 in 10.0 mi SW 17.3 mph 23.0 mph N/A   Overcast
2:15 AM 39.2 °F 30.5 °F 32.0 °F 75% 30.06 in 10.0 mi SW 16.1 mph 23.0 mph N/A   Overcast
2:35 AM 39.2 °F 31.2 °F 32.0 °F 75% 30.05 in 10.0 mi SW 13.8 mph 20.7 mph N/A   Overcast
2:55 AM 39.2 °F 31.6 °F 32.0 °F 75% 30.05 in 10.0 mi SW 12.7 mph - N/A   Overcast
3:15 AM 39.2 °F 30.8 °F 32.0 °F 75% 30.03 in 10.0 mi SW 15.0 mph - N/A   Overcast
3:35 AM 41.0 °F 34.3 °F 32.0 °F 70% 30.02 in 10.0 mi SW 11.5 mph 20.7 mph N/A   Overcast
3:55 AM 39.2 °F 31.6 °F 33.8 °F 81% 30.02 in 10.0 mi SW 12.7 mph - N/A   Overcast
4:15 AM 39.2 °F 32.0 °F 33.8 °F 81% 30.02 in 10.0 mi WSW 11.5 mph 17.3 mph N/A   Overcast
4:35 AM 39.2 °F 31.6 °F 33.8 °F 81% 30.01 in 10.0 mi SW 12.7 mph 16.1 mph N/A   Overcast
4:55 AM 41.0 °F 33.1 °F 32.0 °F 70% 30.01 in 10.0 mi SW 15.0 mph 21.9 mph N/A   Overcast
5:15 AM 41.0 °F 32.2 °F 32.0 °F 70% 30.01 in 10.0 mi SW 18.4 mph - N/A   Overcast
5:35 AM 39.2 °F 30.8 °F 33.8 °F 81% 29.99 in 10.0 mi SW 15.0 mph 19.6 mph N/A   Overcast
5:55 AM 39.2 °F 31.6 °F 33.8 °F 81% 29.98 in 10.0 mi SW 12.7 mph 18.4 mph N/A   Overcast
6:15 AM 39.2 °F 31.2 °F 32.0 °F 75% 29.97 in 10.0 mi WSW 13.8 mph 19.6 mph N/A   Overcast
6:35 AM 41.0 °F 33.9 °F 32.0 °F 70% 29.97 in 10.0 mi SW 12.7 mph 18.4 mph N/A   Overcast
6:55 AM 41.0 °F 33.1 °F 32.0 °F 70% 29.98 in 10.0 mi WSW 15.0 mph 20.7 mph N/A   Overcast
7:15 AM 41.0 °F 33.9 °F 32.0 °F 70% 29.98 in 10.0 mi SW 12.7 mph 19.6 mph N/A   Overcast
7:35 AM 41.0 °F 33.9 °F 32.0 °F 70% 29.98 in 10.0 mi SW 12.7 mph - N/A   Overcast
7:55 AM 41.0 °F 35.2 °F 32.0 °F 70% 29.97 in 10.0 mi SW 9.2 mph - N/A   Overcast
8:15 AM 41.0 °F 35.8 °F 33.8 °F 76% 29.96 in 10.0 mi SW 8.1 mph - N/A   Mostly Cloudy
8:35 AM 41.0 °F 35.8 °F 35.6 °F 81% 29.93 in 10.0 mi SW 8.1 mph - N/A   Clear
8:55 AM 41.0 °F 35.8 °F 35.6 °F 81% 29.93 in 10.0 mi SW 8.1 mph - N/A   Clear
9:15 AM 41.0 °F 35.2 °F 35.6 °F 81% 29.93 in 10.0 mi SSW 9.2 mph - N/A   Scattered Clouds
9:35 AM 41.0 °F 36.4 °F 37.4 °F 87% 29.92 in 5.0 mi SSW 6.9 mph - N/A Rain Light Rain
9:55 AM 41.0 °F 36.4 °F 37.4 °F 87% 29.92 in 5.0 mi SSW 6.9 mph - N/A Rain Light Rain
10:15 AM 41.0 °F 37.1 °F 37.4 °F 87% 29.90 in 7.0 mi SW 5.8 mph - N/A Rain Light Rain
10:35 AM 41.0 °F 38.0 °F 37.4 °F 87% 29.89 in 6.0 mi SW 4.6 mph - N/A Rain Light Rain
10:55 AM 41.0 °F 37.1 °F 37.4 °F 87% 29.88 in 8.0 mi WSW 5.8 mph - N/A Rain Light Rain
11:15 AM 41.0 °F 36.4 °F 37.4 °F 87% 29.88 in 8.0 mi WSW 6.9 mph - N/A   Partly Cloudy
11:35 AM 41.0 °F 37.1 °F 37.4 °F 87% 29.87 in 8.0 mi WSW 5.8 mph - N/A Rain Light Rain
11:55 AM 41.0 °F 39.0 °F 37.4 °F 87% 29.85 in 10.0 mi WSW 3.5 mph - N/A Rain Light Rain
12:15 PM 41.0 °F 39.0 °F 37.4 °F 87% 29.83 in 8.0 mi SW 3.5 mph - N/A Rain Light Rain
12:35 PM 41.0 °F - 39.2 °F 93% 29.81 in 10.0 mi Calm Calm - N/A   Mostly Cloudy
12:55 PM 41.0 °F - 39.2 °F 93% 29.79 in 10.0 mi Calm Calm - N/A   Mostly Cloudy
1:15 PM 42.8 °F - 39.2 °F 87% 29.77 in 10.0 mi Calm Calm - N/A   Mostly Cloudy
1:35 PM 44.6 °F - 41.0 °F 87% 29.74 in 10.0 mi Calm Calm - N/A   Partly Cloudy
1:55 PM 46.4 °F 43.5 °F 41.0 °F 81% 29.74 in 10.0 mi West 5.8 mph - N/A   Partly Cloudy
2:15 PM 46.4 °F - 39.2 °F 76% 29.74 in 10.0 mi Calm Calm - N/A   Scattered Clouds
2:35 PM 48.2 °F - 41.0 °F 76% 29.71 in 10.0 mi West 5.8 mph - N/A   Scattered Clouds
2:55 PM 48.2 °F - 39.2 °F 71% 29.70 in 10.0 mi Calm Calm - N/A   Partly Cloudy
3:15 PM 50.0 °F - 39.2 °F 66% 29.68 in 10.0 mi Calm Calm - N/A   Partly Cloudy
3:35 PM 50.0 °F - 39.2 °F 66% 29.67 in 10.0 mi SSE 3.5 mph - N/A   Partly Cloudy
3:55 PM 51.8 °F - 37.4 °F 58% 29.65 in 10.0 mi WSW 4.6 mph - N/A   Clear
4:15 PM 53.6 °F - 39.2 °F 58% 29.65 in 10.0 mi SW 5.8 mph - N/A   Clear
4:35 PM 53.6 °F - 39.2 °F 58% 29.65 in 10.0 mi SSW 4.6 mph - N/A   Clear
4:55 PM 50.0 °F - 41.0 °F 71% 29.65 in 10.0 mi South 9.2 mph - N/A   Clear
5:15 PM 50.0 °F - 41.0 °F 71% 29.66 in 10.0 mi SE 5.8 mph - N/A   Scattered Clouds
5:35 PM 50.0 °F - 41.0 °F 71% 29.67 in 10.0 mi SE 8.1 mph - N/A   Partly Cloudy
5:55 PM 48.2 °F - 41.0 °F 76% 29.67 in 10.0 mi SSE 6.9 mph - N/A   Clear
6:15 PM 48.2 °F - 41.0 °F 76% 29.67 in 10.0 mi South 9.2 mph - N/A   Clear
6:35 PM 46.4 °F 43.5 °F 39.2 °F 76% 29.69 in 10.0 mi SSW 5.8 mph - N/A   Clear
6:55 PM 44.6 °F 40.2 °F 39.2 °F 81% 29.70 in 10.0 mi SW 8.1 mph - N/A   Clear
7:15 PM 44.6 °F 39.2 °F 37.4 °F 76% 29.71 in 10.0 mi WSW 10.4 mph - N/A   Clear
7:35 PM 42.8 °F 37.0 °F 37.4 °F 81% 29.72 in 10.0 mi WSW 10.4 mph - N/A   Clear
7:55 PM 41.0 °F 35.2 °F 35.6 °F 81% 29.73 in 10.0 mi WSW 9.2 mph - N/A   Clear
8:15 PM 41.0 °F 34.7 °F 35.6 °F 81% 29.74 in 10.0 mi WSW 10.4 mph - N/A   Partly Cloudy
8:35 PM 41.0 °F 35.2 °F 35.6 °F 81% 29.76 in 10.0 mi WSW 9.2 mph - N/A   Clear
8:55 PM 39.2 °F 33.0 °F 35.6 °F 87% 29.76 in 10.0 mi West 9.2 mph - N/A   Clear
9:15 PM 39.2 °F 34.2 °F 35.6 °F 87% 29.76 in 10.0 mi WNW 6.9 mph - N/A   Clear
9:35 PM 37.4 °F 32.8 °F 35.6 °F 93% 29.77 in 10.0 mi WNW 5.8 mph - N/A   Clear
9:55 PM 37.4 °F 32.1 °F 33.8 °F 87% 29.78 in 10.0 mi WNW 6.9 mph - N/A   Clear
10:15 PM 41.0 °F 38.0 °F 33.8 °F 76% 29.80 in 10.0 mi North 4.6 mph - N/A   Clear
10:35 PM 39.2 °F 37.0 °F 32.0 °F 75% 29.81 in 10.0 mi NNW 3.5 mph - N/A   Clear
10:55 PM 39.2 °F 37.0 °F 32.0 °F 75% 29.82 in 10.0 mi North 3.5 mph - N/A   Clear
11:15 PM 39.2 °F 35.0 °F 32.0 °F 75% 29.83 in 10.0 mi North 5.8 mph - N/A   Clear
11:35 PM 39.2 °F 35.9 °F 32.0 °F 75% 29.84 in 10.0 mi North 4.6 mph - N/A   Partly Cloudy
11:55 PM 39.2 °F 34.2 °F 28.4 °F 65% 29.85 in 10.0 mi North 6.9 mph - N/A   Partly Cloudy